Weather History for KGFK - April, 2014

Change the Weather History Date:

Tuesday, April 29, 2014

  Actual Average Record
Temperature  
Mean Temperature 46 °F 49 °F  
Max Temperature 57 °F 62 °F 90 °F (1985)
Min Temperature 34 °F 35 °F 12 °F (1958)
Degree Days  
Heating Degree Days 19 17  
Month to date heating degree days 799 679  
Since 1 July heating degree days 10149 9064  
Cooling Degree Days 0 0  
Month to date cooling degree days 0 0  
Year to date cooling degree days 0 0  
Moisture  
Dew Point 31 °F    
Average Humidity 60    
Maximum Humidity 85    
Minimum Humidity 35    
Precipitation  
Precipitation 0.00 in 0.05 in 0.74 in (2010)
Month to date precipitation 2.53 0.96  
Year to date precipitation 4.53 2.99  
Snow  
Snow 0.00 in 0.10 in 1.40 in (1950)
Month to date snowfall 1.1 2.6  
Since 1 July snowfall 60.3 47.0  
Snow Depth 0.00 in    
Sea Level Pressure  
Sea Level Pressure 30.03 in    
Wind  
Wind Speed 16 mph (NNE)    
Max Wind Speed 30 mph    
Max Gust Speed 37 mph    
Visibility 10 miles    
Events      
T = Trace of Precipitation, MM = Missing Value Source: NWS Daily Summary

Daily Weather History Graph

Daily Weather History Graph

Search for Another Location

Airport or City:

Trip Planner

Search our weather history database for the weather conditions in past years. The results will help you decide how hot, cold, wet, or windy it might be!

Date:

Astronomy

Apr. 29, 2014 Rise Set
Actual Time 6:13 AM CDT 8:39 PM CDT
Civil Twilight 5:39 AM CDT 9:13 PM CDT
Nautical Twilight 4:56 AM CDT 9:56 PM CDT
Astronomical Twilight 4:07 AM CDT 10:46 PM CDT
Moon 6:33 AM CDT (4/29) 9:21 PM CDT (4/29)
Length of Visible Light 15h 33m
Length of Day
14h 25m
New Moon, 0% of the Moon is Illuminated
Apr 29
New Moon
May 6
First Quarter
May 14
Full
May 21
Last Quarter
May 28
New

Hourly Weather History & Observations

Time (CDT) Temp. Windchill Dew Point Humidity Pressure Visibility Wind Dir Wind Speed Gust Speed Precip Events Conditions
12:53 AM 39.9 °F 33.4 °F 32.0 °F 73% 30.01 in 10.0 mi ENE 10.4 mph - 0.00 in   Overcast
1:53 AM 39.0 °F 32.8 °F 33.1 °F 79% 30.01 in 10.0 mi NE 9.2 mph - N/A   Overcast
2:53 AM 37.9 °F 30.5 °F 34.0 °F 86% 30.01 in 10.0 mi North 11.5 mph - N/A   Overcast
3:53 AM 39.9 °F 31.4 °F 30.9 °F 70% 30.01 in 10.0 mi NNE 16.1 mph - N/A   Overcast
4:53 AM 37.0 °F 28.5 °F 30.9 °F 79% 30.03 in 10.0 mi NNE 13.8 mph - N/A   Mostly Cloudy
5:53 AM 35.6 °F 25.9 °F 28.4 °F 75% 30.01 in 10.0 mi NNE 16.1 mph - N/A   Partly Cloudy
6:53 AM 34.0 °F 24.2 °F 27.0 °F 75% 30.05 in 10.0 mi NNE 15.0 mph - N/A   Partly Cloudy
7:53 AM 35.6 °F 24.8 °F 28.4 °F 75% 30.04 in 10.0 mi NE 19.6 mph - N/A   Clear
8:53 AM 39.0 °F 29.6 °F 27.0 °F 62% 30.08 in 10.0 mi NE 18.4 mph - N/A   Clear
9:53 AM 42.8 °F 34.5 °F 30.2 °F 61% 30.05 in 10.0 mi NE 18.4 mph - N/A   Clear
10:53 AM 44.1 °F 35.9 °F 32.0 °F 63% 30.07 in 10.0 mi NNE 19.6 mph - N/A   Clear
11:53 AM 48.0 °F - 35.1 °F 61% 30.06 in 10.0 mi NNE 18.4 mph 25.3 mph N/A   Clear
12:53 PM 51.1 °F - 33.1 °F 50% 30.04 in 10.0 mi NNE 27.6 mph 33.4 mph N/A   Partly Cloudy
1:53 PM 53.1 °F - 32.0 °F 45% 30.02 in 10.0 mi NNE 21.9 mph 34.5 mph N/A   Partly Cloudy
2:53 PM 54.0 °F - 30.9 °F 41% 30.01 in 10.0 mi NNE 24.2 mph 32.2 mph N/A   Scattered Clouds
3:53 PM 55.4 °F - 30.2 °F 38% 29.97 in 10.0 mi North 27.6 mph 34.5 mph N/A   Scattered Clouds
4:53 PM 55.9 °F - 30.0 °F 37% 29.99 in 10.0 mi NNE 25.3 mph 32.2 mph N/A   Scattered Clouds
5:53 PM 55.0 °F - 28.0 °F 35% 30.01 in 10.0 mi NE 19.6 mph 32.2 mph N/A   Scattered Clouds
6:53 PM 53.1 °F - 28.0 °F 38% 30.03 in 10.0 mi NE 19.6 mph - N/A   Scattered Clouds
7:53 PM 50.0 °F - 30.0 °F 46% 30.03 in 10.0 mi NNE 11.5 mph - N/A   Scattered Clouds
8:53 PM 44.1 °F 39.5 °F 33.1 °F 65% 30.04 in 10.0 mi North 8.1 mph - N/A   Scattered Clouds
9:53 PM 39.0 °F 34.0 °F 32.0 °F 76% 30.04 in 10.0 mi North 6.9 mph - N/A   Scattered Clouds
10:53 PM 39.0 °F 33.4 °F 32.0 °F 76% 30.05 in 10.0 mi North 8.1 mph - N/A   Mostly Cloudy
11:53 PM 39.0 °F 33.4 °F 32.0 °F 76% 30.04 in 10.0 mi North 8.1 mph - N/A   Clear